Tracking 29781 objects as of 15-Oct-2024
HD Live streaming from Space Station
objects crossing your sky now

DELTA 1 DEB

Track DELTA 1 DEB now!
10-day predictions


NORAD ID: 42646
Int'l Code: 1975-052MF
Perigee: 1,091.6 km
Apogee: 1,172.3 km
Inclination: 100.0 °
Period: 107.8 minutes
Semi major axis: 7502 km
RCS: Unknown
Launch date: June 12, 1975
Source: United States (US)
Launch site: AIR FORCE WESTERN TEST RANGE (AFWTR)

Note: This is SATELLITE DEBRIS
Your satellite tracking list
Your tracking list is empty




NASA's NSSDC Master Catalog

Two Line Element Set (TLE):
1 42646U 75052MF  24288.05380454  .00000348  00000-0  76263-3 0  9996
2 42646 100.0011 206.0985 0053791 240.8639 118.7096 13.35847182485465
Source of the keplerian elements: AFSPC